KB5SQG Weather Reports


time (UTC)temp
F
wind
direction
speed
knots
gust
knots
rain 1hr
in
rain 24hr
in
rain mn
in
humidity
%
barometer
mb
20260506044117 66 0.0 0.9 0.00 0.00 0.00 73 1011.0
20260506043231 66 23 1.7 1.7 0.00 0.00 0.00 72 1010.9
20260506003017 78 45 0.9 3.5 0.00 0.00 0.00 60 1006.4
20260506002017 79 0.0 0.9 0.00 0.00 0.00 59 1005.8
20260506001017 80 0.0 0.9 0.00 0.00 0.00 58 1005.9
20260506000017 82 0.0 0.0 0.00 0.00 0.00 54 1005.7
20260505235017 83 45 0.9 2.6 0.00 0.00 0.00 54 1005.7
20260505234057 85 23 1.7 4.3 0.00 0.00 0.00 53 1005.6
20260505233017 89 68 1.7 2.6 0.00 0.00 0.00 50 1005.2
20260505232017 89 0.0 0.9 0.00 0.00 0.00 47 1004.7
20260505231017 90 23 0.9 1.7 0.00 0.00 0.00 45 1004.6
20260505230037 93 0.0 0.9 0.00 0.00 0.00 43 1004.4
20260505225057 95 0.0 0.0 0.00 0.00 0.00 43 1004.2
20260505224017 95 0.0 0.9 0.00 0.00 0.00 45 1004.2
20260505223017 94 45 0.9 3.5 0.00 0.00 0.00 45 1004.0
20260505222017 94 0.0 0.9 0.00 0.00 0.00 39 1004.0
20260505221017 95 0.0 1.7 0.00 0.00 0.00 39 1003.9
20260505220017 95 0.0 0.0 0.00 0.00 0.00 40 1003.9
20260505215017 97 0.0 0.0 0.00 0.00 0.00 42 1003.8
20260505214017 96 0.0 0.0 0.00 0.00 0.00 39 1004.0
20260505213017 95 248 0.9 2.6 0.00 0.00 0.00 38 1004.1
20260505212017 94 225 0.9 2.6 0.00 0.00 0.00 39 1004.1
20260505211017 95 0.0 0.9 0.00 0.00 0.00 40 1004.3
20260505210017 93 248 1.7 3.5 0.00 0.00 0.00 40 1004.4
20260505205017 94 315 1.7 4.3 0.00 0.00 0.00 43 1004.6
20260505204017 93 248 0.9 1.7 0.00 0.00 0.00 42 1004.8
20260505202017 92 315 0.9 1.7 0.00 0.00 0.00 46 1004.9
20260505201037 91 0.0 0.9 0.00 0.00 0.00 47 1004.9
20260505200017 92 270 0.9 2.6 0.00 0.00 0.00 45 1005.2
20260505195017 92 315 2.6 5.2 0.00 0.00 0.00 46 1005.3
20260505194017 91 338 1.7 3.5 0.00 0.00 0.00 46 1005.4
20260505193017 91 293 2.6 4.3 0.00 0.00 0.00 44 1005.4
20260505192017 90 293 3.5 5.2 0.00 0.00 0.00 45 1005.4
20260505191017 91 338 2.6 5.2 0.00 0.00 0.00 48 1005.6
20260505190017 90 203 0.9 1.7 0.00 0.00 0.00 50 1005.5
20260505185037 90 0.0 1.7 0.00 0.00 0.00 52 1005.7
20260505184019 88 293 0.9 2.6 0.00 0.00 0.00 52 1005.7
20260505183018 88 293 2.6 6.1 0.00 0.00 0.00 54 1005.8
20260505182017 87 293 1.7 3.5 0.00 0.00 0.00 53 1006.1
20260505181018 87 315 1.7 2.6 0.00 0.00 0.00 58 1006.2
20260505180018 86 293 3.5 6.1 0.00 0.00 0.00 57 1006.2
20260505175017 85 158 0.9 0.9 0.00 0.00 0.00 60 1006.2
20260505174017 84 338 2.6 3.5 0.00 0.00 0.00 61 1006.3
20260505173017 85 180 2.6 6.1 0.00 0.00 0.00 61 1006.5
20260505172017 84 315 1.7 3.5 0.00 0.00 0.00 63 1006.5
20260505171018 83 293 0.9 5.2 0.00 0.00 0.00 66 1006.5
20260505170017 83 225 0.9 1.7 0.00 0.00 0.00 67 1006.6
20260505165018 82 0.0 0.9 0.00 0.00 0.00 68 1006.6
20260505164017 82 315 1.7 3.5 0.00 0.00 0.00 68 1006.3
20260505163017 81 248 0.9 2.6 0.00 0.00 0.00 69 1006.2
20260505162017 81 225 2.6 4.3 0.00 0.00 0.00 69 1006.2
20260505161017 81 293 3.5 7.8 0.00 0.00 0.00 69 1006.2
20260505153015 80 293 3.5 8.7 0.00 0.00 0.00 70 1006.4
20260505152117 79 338 0.9 2.6 0.00 0.00 0.00 72 1006.4
20260505151016 79 270 3.5 7.8 0.00 0.00 0.00 72 1006.5
20260505125016 69 0.0 0.0 0.00 0.00 0.00 86 1006.3
20260505124016 69 0.0 0.0 0.00 0.00 0.00 86 1006.4
20260505123016 69 0.0 0.0 0.00 0.00 0.00 87 1006.2
20260505122036 69 0.0 0.0 0.00 0.00 0.00 87 1006.0
20260505121035 68 0.0 0.9 0.00 0.00 0.00 87 1005.8
20260505120016 68 0.0 0.0 0.00 0.00 0.00 87 1005.8
20260505115016 69 0.0 0.0 0.00 0.00 0.00 86 1005.7
20260505114015 69 0.0 0.9 0.00 0.00 0.00 85 1005.4
20260505113017 69 315 0.9 1.7 0.00 0.00 0.00 85 1005.3
20260505112016 69 0.0 0.0 0.00 0.00 0.00 85 1005.5
20260505111016 69 0.0 0.9 0.00 0.00 0.00 85 1005.4
20260505102016 69 0.0 0.9 0.00 0.00 0.00 84 1005.3
20260505101016 69 0.0 0.0 0.00 0.00 0.00 84 1005.4
20260505100016 69 0.0 0.0 0.00 0.00 0.00 84 1005.6
20260505095016 69 0.0 0.9 0.00 0.00 0.00 84 1005.5
20260505094016 70 0.0 0.9 0.00 0.00 0.00 83 1005.6
20260505093016 70 0.0 0.0 0.00 0.00 0.00 83 1005.5
20260505092016 70 0.0 0.9 0.00 0.00 0.00 83 1005.7
20260505091016 70 0.0 0.0 0.00 0.00 0.00 82 1005.8
20260505090015 70 0.0 0.0 0.00 0.00 0.00 81 1005.7
20260505085016 71 0.0 0.0 0.00 0.00 0.00 81 1005.8
20260505084016 71 0.0 0.0 0.00 0.00 0.00 80 1006.0
20260505083016 71 0.0 0.0 0.00 0.00 0.00 80 1006.1
20260505082016 71 0.0 0.0 0.00 0.00 0.00 79 1006.1
20260505081016 71 315 0.9 4.3 0.00 0.00 0.00 78 1006.0
20260505080016 72 0.0 2.6 0.00 0.00 0.00 78 1005.9
20260505075016 72 158 0.9 2.6 0.00 0.00 0.00 77 1006.1
20260505074016 72 113 0.9 1.7 0.00 0.00 0.00 76 1006.0
20260505073036 73 293 0.9 2.6 0.00 0.00 0.00 76 1006.3
20260505072016 73 0.0 2.6 0.00 0.00 0.00 75 1006.5
20260505071015 73 0.0 0.0 0.00 0.00 0.00 74 1006.4
20260505070016 73 0.0 0.9 0.00 0.00 0.00 74 1006.5
20260505065036 74 135 1.7 4.3 0.00 0.00 0.00 73 1006.6
20260505064016 74 45 0.9 2.6 0.00 0.00 0.00 73 1006.7
20260505063016 74 158 0.9 1.7 0.00 0.00 0.00 73 1006.7
20260505062016 74 90 1.7 4.3 0.00 0.00 0.00 72 1007.0
20260505061016 75 270 0.9 1.7 0.00 0.00 0.00 72 1006.9
20260505060016 75 113 0.9 6.1 0.00 0.00 0.00 71 1006.8
20260505055016 75 293 1.7 3.5 0.00 0.00 0.00 71 1006.8
20260505054016 75 0.0 1.7 0.00 0.00 0.00 71 1006.8
20260505053016 75 113 1.7 6.1 0.00 0.00 0.00 71 1006.8
20260505052016 75 135 0.9 2.6 0.00 0.00 0.00 70 1006.7
20260505051016 75 158 1.7 6.1 0.00 0.00 0.00 70 1006.8